[[{"header":{"parameterUnit":"m.s-1","parameterCategory":1,"la1":30.2991,"la2":30.254,"lo1":-89.0895,"lo2":-89.0444,"dy":0.0017,"dx":0.0017,"nx":28,"ny":28,"refTime":"2023-10-22T21:00:00:Z","depth":0,"parameterNumber":2,"parameterNumberName":"U-component_of_WINDS"},"data":[0,0,0,0,0,0,0,0,0,0,0,0,0,0,0,0,0,0,0,0,0,0,0,0,0,0,0,0,0,0,0,0,0,0,0,0,0,0,0,0,0,0,0,0,0,0,0,0,0,0,0,0,0,0,0,0,0,0,-3.1367,-3.1368,0,-3.1447,-3.1448,-3.1449,-3.1398,-3.1396,-3.1394,-3.1391,-3.1473,-3.1477,-3.1482,0,0,0,0,0,0,0,0,0,0,0,0,0,-3.117,-3.1174,-3.1367,-3.1368,-3.1369,-3.1447,-3.1448,-3.1449,-3.1399,-3.1396,-3.1393,-3.139,-3.1472,-3.1477,-3.1482,0,0,0,0,0,0,0,0,0,0,0,0,0,-3.1253,-3.1175,-3.1367,-3.1353,-3.1353,-3.1447,-3.1448,-3.145,-3.1399,-3.1396,-3.1392,-3.1389,-3.147,-3.1476,-3.1483,-3.1595,0,0,-3.1503,-3.1506,0,0,0,0,0,0,0,0,-3.1249,-3.1261,-3.1354,-3.1354,-3.1354,-3.1409,-3.1409,-3.1498,-3.14,-3.1382,-3.1391,-3.1387,-3.1455,-3.1462,-3.1485,-3.1598,-3.1602,-3.1503,-3.1507,-3.151,-3.1512,0,0,0,0,0,0,0,-3.1243,-3.1257,-3.1398,-3.1355,-3.1355,-3.1343,-3.1351,-3.1425,-3.1437,-3.1383,-3.1379,-3.139,-3.1454,-3.1479,-3.1487,-3.1603,-3.1503,-3.1509,-3.1513,-3.1516,-3.1814,-3.1817,0,0,0,0,0,0,-3.1238,-3.1252,-3.1396,-3.1401,-3.1291,-3.135,-3.1358,-3.1395,-3.1436,-3.1439,-3.1393,-3.1387,-3.1469,-3.1479,-3.1489,-3.1623,-3.151,-3.1516,-3.152,-3.181,-3.1814,-3.1819,0,0,0,0,0,0,-3.1234,-3.1252,-3.1393,-3.1326,-3.1343,-3.1357,-3.1398,-3.1398,-3.1423,-3.1443,-3.1445,-3.1416,-3.1467,-3.148,-3.1569,-3.1625,-3.1519,-3.1525,-3.1805,-3.1811,-3.1817,-3.1892,0,0,0,0,0,0,-3.1229,-3.125,-3.1293,-3.1327,-3.1347,-3.1471,-3.1402,-3.1403,-3.1435,-3.1428,-3.1466,-3.1469,-3.1465,-3.156,-3.1576,-3.1633,-3.1531,-3.18,-3.1808,-3.1815,-3.1885,-3.19,-3.1913,0,0,0,0,0,-3.1222,-3.1311,-3.1295,-3.1313,-3.14,-3.1475,-3.1486,-3.148,-3.144,-3.1482,-3.1496,-3.1467,-3.1617,-3.1569,-3.1587,-3.1647,-3.1796,-3.1806,-3.1814,-3.1878,-3.1897,-3.1913,0,0,0,0,0,0,-3.1282,-3.1315,-3.1298,-3.14,-3.1435,-3.1466,-3.1519,-3.15,-3.1546,-3.1538,-3.1529,-3.1538,-3.1631,-3.1648,-3.1594,-3.1758,-3.17,-3.1713,-3.1743,-3.1761,-3.1775,-3.1769,-3.1536,0,0,0,0,0,-3.1307,-3.1365,-3.1391,-3.1478,-3.1497,-3.1506,-3.1538,-3.1531,-3.1566,-3.158,-3.16,-3.1636,-3.1691,-3.1727,-3.1778,-3.1887,-3.1895,-3.1937,-3.1952,-3.1963,-3.1974,-3.2034,-3.2053,-3.1848,-3.1848,-3.1848,0,0,-3.1359,-3.1385,-3.1421,-3.1491,-3.1517,-3.1577,-3.1518,-3.1584,-3.1629,-3.159,-3.1676,-3.1692,-3.1731,-3.1831,-3.1875,-3.1847,-3.2033,-3.1975,-3.1984,-3.1988,-3.2045,-3.2064,-3.2081,-3.1854,-3.1853,-3.1852,0,0,-3.1485,-3.151,-3.1587,-3.1614,-3.1655,-3.166,-3.1679,-3.1713,-3.1723,-3.1808,-3.1781,-3.1834,-3.1929,-3.1958,-3.1986,-3.2125,-3.2101,-3.2143,-3.2216,-3.2274,-3.229,-3.2305,-3.2355,-3.2373,-3.2154,-3.2154,-3.2154,0,-3.1545,-3.1635,-3.1628,-3.1697,-3.1728,-3.1698,-3.1775,-3.1802,-3.1857,-3.188,-3.1848,-3.1967,-3.1991,-3.2098,-3.2132,-3.2155,-3.2176,-3.2137,-3.2289,-3.2303,-3.2316,-3.2364,-3.2382,-3.2159,-3.2158,-3.2158,-3.2157,0,-3.1706,-3.1769,-3.1826,-3.1881,-3.1919,-3.1992,-3.1997,-3.2036,-3.2026,-3.2036,-3.2124,-3.2152,-3.2209,-3.2234,-3.2225,-3.234,-3.2322,-3.229,-3.2232,-3.2341,-3.2385,-3.2403,-3.2165,-3.2164,-3.2162,-3.2161,0,0,-3.1871,-3.1922,-3.1943,-3.1968,-3.2012,-3.206,-3.2132,-3.2189,-3.2223,-3.2263,-3.2323,-3.2405,-3.2376,-3.2407,-3.2401,-3.2452,-3.2562,-3.2414,-3.2415,-3.244,-3.2691,-3.2714,-3.2735,-3.2547,-3.255,-3.2553,-3.2687,0,-3.1999,-3.2124,-3.2121,-3.2238,-3.2296,-3.2268,-3.2331,-3.2365,-3.2376,-3.2427,-3.2439,-3.2498,-3.2455,-3.2474,-3.2523,-3.2538,-3.2612,-3.2528,-3.2602,-3.2605,-3.2592,-3.2758,-3.2783,-3.2908,-3.2705,-3.2707,-3.271,0,-3.2165,-3.2211,-3.2334,-3.237,-3.2394,-3.245,-3.2502,-3.2552,-3.259,-3.2595,-3.2631,-3.2617,-3.2691,-3.2632,-3.2733,-3.2676,-3.2707,-3.2719,-3.2724,-3.2729,-3.2663,-3.2768,-3.2948,-3.2967,-3.2737,-3.2735,-3.2733,0,-3.2272,-3.2365,-3.245,-3.2473,-3.2517,-3.2557,-3.2578,-3.2612,-3.2647,-3.2693,-3.2716,-3.277,-3.2799,-3.2841,-3.2843,-3.28,-3.2946,-3.2887,-3.2951,-3.2951,-3.2982,-3.298,-3.3169,-3.3003,-3.3003,-3.3002,-3.3002,0,-3.2415,-3.2491,-3.2499,-3.2552,-3.2636,-3.2633,-3.2717,-3.2733,-3.2765,-3.282,-3.28,-3.2853,-3.2852,-3.2906,-3.2908,-3.2992,-3.3006,-3.3011,-3.3011,-3.3013,-3.3012,-3.3032,-3.3023,-3.3007,-3.3006,-3.3005,-3.3005,0,-3.2548,-3.2557,-3.2648,-3.2683,-3.2694,-3.2755,-3.2785,-3.2835,-3.2845,-3.2916,-3.2932,-3.2948,-3.301,-3.3017,-3.3089,-3.3091,-3.3192,-3.3182,-3.3179,-3.3177,-3.3241,-3.3235,-3.3449,-3.3477,-3.3294,-3.3295,-3.3297,0,-3.2639,-3.2696,-3.2738,-3.2774,-3.2797,-3.2855,-3.2891,-3.289,-3.2928,-3.2977,-3.3022,-3.3082,-3.3131,-3.3232,-3.325,-3.3306,-3.3297,-3.3368,-3.3305,-3.3305,-3.3298,-3.3294,-3.33,-3.338,-3.3382,-3.3383,-3.3385,0,-3.2798,-3.28,-3.2852,-3.2906,-3.295,-3.2992,-3.3032,-3.3063,-3.3067,-3.3111,-3.3175,-3.3213,-3.3288,-3.3348,-3.3403,-3.3424,-3.3406,-3.3405,-3.3423,-3.3425,-3.342,-3.3423,-3.3212,-3.34,-3.3398,-3.3397,-3.3396,-3.3396,-3.2912,-3.2963,-3.3,-3.3059,-3.309,-3.3128,-3.3177,-3.3194,-3.3247,-3.3308,-3.3305,-3.3376,-3.3414,-3.3486,-3.3512,-3.3567,-3.3543,-3.3569,-3.3576,-3.3582,-3.3588,-3.3413,-3.3577,-3.3577,-3.3576,-3.3576,-3.3576,0,-3.307,-3.3093,-3.3148,-3.3205,-3.3252,-3.3231,-3.3275,-3.3315,-3.3378,-3.3415,-3.3464,-3.3538,-3.3597,-3.3621,-3.3679,-3.3719,-3.3712,-3.3734,-3.373,-3.3736,-3.3606,-3.3585,-3.3739,-3.3739,-3.3739,-3.3739,-3.3739,-3.3738,-3.3157,-3.3242,-3.3249,-3.3349,-3.3371,-3.3441,-3.3467,-3.3503,-3.3533,-3.3617,-3.3666,-3.3681,-3.3713,-3.3774,-3.3828,-3.3833,-3.3855,-3.3881,-3.3883,-3.3761,-3.3745,-3.3729,-3.3709,-3.3886,-3.3886,-3.4008,-3.4009,-3.4009]},{"header":{"parameterUnit":"m.s-1","parameterCategory":1,"la1":30.2991,"la2":30.254,"lo1":-89.0895,"lo2":-89.0444,"dy":0.0017,"dx":0.0017,"nx":28,"ny":28,"refTime":"2023-10-22T21:00:00:Z","depth":0,"parameterNumber":3,"parameterNumberName":"V-component_of_WINDS"},"data":[0,0,0,0,0,0,0,0,0,0,0,0,0,0,0,0,0,0,0,0,0,0,0,0,0,0,0,0,0,0,0,0,0,0,0,0,0,0,0,0,0,0,0,0,0,0,0,0,0,0,0,0,0,0,0,0,0,0,0.7813,0.7814,0,0.7912,0.7914,0.7915,0.7965,0.7965,0.7965,0.7965,0.8065,0.8067,0.807,0,0,0,0,0,0,0,0,0,0,0,0,0,0.7667,0.7669,0.7813,0.7814,0.7815,0.7912,0.7914,0.7915,0.7965,0.7965,0.7965,0.7965,0.8064,0.8067,0.807,0,0,0,0,0,0,0,0,0,0,0,0,0,0.7745,0.767,0.7813,0.7852,0.7857,0.7912,0.7914,0.7915,0.7965,0.7965,0.7965,0.7965,0.8063,0.8067,0.8071,0.8094,0,0,0.8083,0.8084,0,0,0,0,0,0,0,0,0.774,0.775,0.7845,0.785,0.7855,0.7927,0.7899,0.7975,0.7965,0.7924,0.7965,0.7965,0.8019,0.8026,0.8045,0.8098,0.8102,0.8083,0.8085,0.8087,0.8088,0,0,0,0,0,0,0,0.7735,0.7746,0.7852,0.7846,0.7852,0.7865,0.7876,0.7913,0.797,0.7927,0.7931,0.7943,0.8021,0.8041,0.8047,0.8104,0.8083,0.8086,0.8089,0.809,0.8184,0.8184,0,0,0,0,0,0,0.7723,0.7741,0.7849,0.7855,0.7796,0.7868,0.788,0.7903,0.7969,0.798,0.7942,0.7945,0.8034,0.8043,0.8051,0.8084,0.8087,0.8091,0.8093,0.8184,0.8184,0.8184,0,0,0,0,0,0,0.772,0.7732,0.7845,0.7799,0.7815,0.787,0.7896,0.7905,0.7925,0.7981,0.7991,0.7952,0.8034,0.8046,0.8083,0.8088,0.8092,0.8096,0.8184,0.8184,0.8184,0.8148,0,0,0,0,0,0,0.7715,0.7731,0.774,0.7799,0.7817,0.7876,0.7896,0.7907,0.7932,0.7935,0.7992,0.8002,0.8035,0.8077,0.8087,0.8093,0.8099,0.8183,0.8184,0.8184,0.8149,0.8147,0.8146,0,0,0,0,0,0.771,0.7725,0.774,0.7753,0.7829,0.7876,0.7886,0.7925,0.7932,0.7942,0.7978,0.8,0.8086,0.8081,0.8092,0.81,0.8183,0.8184,0.8184,0.815,0.8148,0.8146,0,0,0,0,0,0,0.7663,0.7733,0.7751,0.7785,0.7824,0.7884,0.7897,0.792,0.7958,0.7959,0.8006,0.8018,0.8052,0.808,0.8073,0.8127,0.8137,0.814,0.8107,0.8105,0.8103,0.8096,0.8102,0,0,0,0,0,0.7657,0.7689,0.7748,0.7773,0.7792,0.7841,0.7863,0.789,0.7932,0.7948,0.7987,0.8027,0.8063,0.8086,0.8122,0.8154,0.8168,0.8165,0.8163,0.8161,0.8163,0.8184,0.8184,0.8185,0.8185,0.8185,0,0,0.7644,0.7686,0.7703,0.7765,0.7798,0.7831,0.7855,0.7887,0.7912,0.7953,0.7992,0.8022,0.8069,0.8105,0.8122,0.8129,0.8166,0.8161,0.816,0.8162,0.8184,0.8184,0.8184,0.8185,0.8185,0.8185,0,0,0.7638,0.7672,0.7698,0.7732,0.7782,0.7816,0.7822,0.7879,0.7901,0.7941,0.7973,0.8003,0.8064,0.8097,0.8121,0.8131,0.8153,0.8141,0.8131,0.8151,0.8151,0.8151,0.8155,0.8156,0.8142,0.8142,0.8142,0,0.7615,0.7665,0.7708,0.774,0.7766,0.7806,0.7833,0.7863,0.7923,0.7941,0.7947,0.8026,0.8061,0.8106,0.8108,0.8127,0.8136,0.8134,0.8147,0.8148,0.8149,0.8153,0.8155,0.8141,0.8141,0.8141,0.8141,0,0.7636,0.7671,0.7685,0.7743,0.7772,0.78,0.7848,0.7871,0.7896,0.7929,0.797,0.8013,0.806,0.8073,0.8096,0.8122,0.8124,0.8138,0.815,0.8146,0.8152,0.8154,0.8138,0.8139,0.8139,0.814,0,0,0.7601,0.7685,0.7689,0.7717,0.7777,0.7805,0.7836,0.7883,0.7903,0.7944,0.7972,0.8024,0.8038,0.8066,0.8094,0.8112,0.8118,0.8125,0.8126,0.8123,0.815,0.8139,0.8141,0.8134,0.8134,0.8134,0.8147,0,0.7604,0.7663,0.7703,0.7746,0.7779,0.7819,0.7847,0.7887,0.7919,0.7952,0.7987,0.8024,0.8039,0.8057,0.8076,0.8113,0.8124,0.8113,0.816,0.8162,0.8148,0.8143,0.8132,0.8141,0.8149,0.8149,0.815,0,0.7614,0.7655,0.7702,0.7761,0.7776,0.78,0.7848,0.7879,0.7926,0.7948,0.7981,0.801,0.8046,0.8054,0.8105,0.8096,0.8118,0.814,0.8141,0.8147,0.8155,0.815,0.8145,0.8146,0.8153,0.8153,0.8152,0,0.7586,0.7652,0.769,0.7712,0.7781,0.7798,0.7827,0.7875,0.7901,0.7942,0.796,0.8005,0.8029,0.8063,0.8104,0.8106,0.8151,0.8162,0.8171,0.817,0.8178,0.8177,0.8177,0.8191,0.8191,0.8191,0.8191,0,0.7585,0.7612,0.7678,0.7701,0.7733,0.778,0.781,0.7843,0.7885,0.7916,0.7952,0.798,0.8033,0.8067,0.8099,0.8137,0.8147,0.8167,0.8175,0.8164,0.8161,0.8179,0.8179,0.8192,0.8192,0.8191,0.8191,0,0.7558,0.7603,0.7647,0.7709,0.7726,0.7747,0.7801,0.7825,0.786,0.7898,0.791,0.7964,0.8007,0.8051,0.8108,0.8131,0.8167,0.8178,0.8151,0.8156,0.8163,0.8162,0.8174,0.8179,0.8189,0.8189,0.8189,0,0.7554,0.7577,0.7643,0.7666,0.7695,0.7732,0.776,0.7807,0.7835,0.7891,0.7909,0.7955,0.7994,0.806,0.8104,0.8149,0.8162,0.8163,0.8169,0.8158,0.8163,0.8162,0.8165,0.8161,0.8161,0.8161,0.816,0,0.7544,0.7566,0.7604,0.7652,0.7684,0.7724,0.7764,0.7781,0.7837,0.7866,0.7911,0.7941,0.8001,0.8046,0.8097,0.8127,0.8153,0.8159,0.8163,0.8152,0.8136,0.8146,0.8147,0.8158,0.8158,0.8158,0.8159,0.8159,0.7529,0.7552,0.7602,0.7645,0.7681,0.7719,0.7745,0.7784,0.7823,0.7876,0.7901,0.7946,0.7995,0.8066,0.8096,0.8132,0.814,0.8146,0.8148,0.8148,0.8146,0.813,0.8141,0.8142,0.8142,0.8142,0.8142,0,0.7522,0.7557,0.7596,0.7652,0.7686,0.7709,0.7756,0.7783,0.7822,0.7866,0.7904,0.7957,0.8001,0.805,0.8098,0.8118,0.8131,0.8129,0.8128,0.8135,0.8136,0.8128,0.8118,0.8118,0.8118,0.8118,0.8118,0.8118,0.7521,0.7561,0.759,0.7648,0.7683,0.7728,0.7754,0.7789,0.7824,0.7881,0.7919,0.7951,0.7998,0.805,0.8092,0.8106,0.8122,0.8116,0.8133,0.8133,0.8135,0.8137,0.8129,0.8119,0.8119,0.8129,0.8129,0.8129]}]]